Theta_e
315 315 315 316 317 316 315 315 314 313 313 313 313 314 314 314 313 303 299 302 301 293 295 299 298 292 291 289 289 290 292 292 292 290 287 286 289 290 285 288 285 285 286 289 286 286 286 300 306 300 310 315 315 316
314 315 315 315 316 316 315 315 315 314 314 314 313 313 313 313 313 306 298 303 304 298 297 299 302 302 299 299 293 296 294 293 293 292 290 289 289 292 287 283 290 289 292 294 294 294 301 301 300 303 310 311 313 315
314 315 315 314 315 315 315 315 315 315 315 314 313 313 313 313 312 308 299 300 301 295 296 296 297 299 300 301 299 294 298 300 299 302 294 292 288 291 284 288 291 295 301 297 294 298 298 299 302 302 304 304 305 307
314 315 315 314 314 314 315 315 315 315 314 314 313 312 312 312 311 309 299 300 300 296 290 294 302 300 302 299 299 298 301 302 302 301 296 291 286 292 287 292 291 296 298 296 293 297 300 300 300 301 302 304 304 306
314 314 314 314 314 314 315 315 315 314 313 314 312 312 311 311 310 305 300 302 301 297 290 291 297 300 299 299 299 298 297 297 295 294 294 291 296 295 294 293 294 297 295 292 290 296 295 296 300 299 298 299 300 302
313 313 313 314 314 314 315 314 314 314 313 313 312 311 311 310 309 302 299 302 303 301 294 289 296 297 299 299 298 295 295 292 293 292 291 293 296 293 288 288 294 296 298 296 294 297 297 299 299 298 297 299 301 304
313 313 314 314 314 314 315 314 314 313 312 311 311 310 310 309 302 299 299 302 304 302 296 291 292 297 298 297 296 295 294 294 292 289 290 290 292 292 289 285 292 294 295 296 295 296 295 295 294 297 298 300 301 303
313 313 313 314 314 314 314 313 313 313 312 311 310 309 309 309 307 301 304 307 305 298 297 289 291 294 297 293 292 293 292 292 292 290 290 289 291 289 286 289 292 294 295 294 294 294 294 295 296 296 298 299 299 299
312 313 313 313 313 313 313 313 313 313 310 309 309 310 306 303 301 305 311 309 305 300 293 292 286 287 297 292 291 291 291 289 291 289 290 289 286 283 288 290 292 294 293 293 294 294 294 293 293 294 295 296 296 297
312 312 312 312 312 313 313 313 313 312 309 309 306 304 302 306 313 312 304 298 296 296 294 290 295 291 294 290 289 289 289 286 285 288 290 284 285 290 292 293 294 294 294 294 290 289 291 291 292 293 294 295 296 297
312 312 312 312 312 312 312 312 312 309 309 308 306 305 308 313 307 302 298 297 295 295 296 295 295 294 296 290 289 290 287 285 280 285 286 284 282 290 293 293 294 294 295 294 293 293 293 292 292 292 294 295 297 297
311 311 311 312 312 312 312 312 311 309 310 308 307 308 307 305 301 297 296 297 294 295 299 298 297 298 295 294 291 290 288 289 284 290 286 283 288 291 294 295 294 294 296 295 296 295 294 295 294 294 294 294 295 295
311 311 311 311 312 312 312 312 311 310 309 309 305 302 302 301 292 294 293 297 296 299 301 300 296 297 296 296 292 291 288 287 291 287 286 287 289 293 294 295 295 296 297 297 297 297 296 295 295 294 294 294 294 294
310 310 310 310 311 311 311 311 311 309 307 303 301 291 298 295 296 298 299 300 303 304 305 304 298 297 295 294 294 291 292 292 287 284 285 289 291 294 295 297 297 296 297 297 297 297 296 295 294 295 295 294 294 294
310 310 310 310 311 311 311 311 310 309 306 301 301 293 299 302 303 304 305 302 308 309 307 304 302 299 297 296 295 293 289 287 287 285 288 291 292 295 295 297 297 297 298 297 297 296 297 296 294 294 294 294 294 294
310 310 310 311 311 311 310 310 310 308 306 302 301 300 304 302 300 302 302 304 310 309 306 303 299 298 297 298 291 290 287 284 288 289 291 292 293 294 294 296 299 299 298 298 298 298 297 296 296 295 295 294 294 295
309 309 312 311 311 309 310 309 307 303 302 302 300 304 303 303 302 300 301 304 311 307 302 301 296 297 298 293 289 291 288 291 292 292 293 293 294 293 293 294 297 299 298 298 297 297 297 298 296 295 295 296 295 295
308 312 311 309 309 309 308 308 306 304 300 302 299 302 305 306 304 301 301 309 306 306 305 301 303 298 292 290 290 291 293 294 294 294 294 294 295 294 295 293 295 296 295 295 295 296 296 296 295 296 296 297 296 296
310 311 310 310 310 308 305 305 305 300 301 302 304 305 305 305 306 305 303 308 310 312 309 305 301 294 294 296 296 297 296 295 294 294 294 294 295 295 296 295 295 295 295 295 295 294 294 295 296 296 296 296 296 297
309 309 310 311 311 307 305 305 307 302 301 302 303 302 302 302 303 304 305 309 311 310 305 302 299 298 298 299 298 298 297 297 295 294 295 296 296 296 296 296 296 296 295 295 295 295 295 295 295 295 297 297 296 298
308 310 310 310 308 306 306 306 305 305 305 305 303 301 301 303 303 302 303 310 308 305 301 303 302 303 302 301 300 300 298 297 297 297 297 296 297 298 297 297 297 297 296 296 296 296 296 297 298 297 296 297 298 299
309 311 308 309 305 306 303 307 305 306 304 305 303 300 300 300 302 303 306 303 302 303 304 302 303 303 303 301 299 298 299 298 298 298 297 299 298 298 298 299 297 297 297 298 298 298 297 297 295 295 295 295 294 296
310 309 307 306 303 299 298 308 303 305 302 303 306 300 301 302 304 308 301 303 304 305 305 305 304 303 300 300 299 297 299 299 298 298 299 299 299 299 300 301 300 300 299 300 297 296 294 293 294 294 294 295 294 294
310 307 304 303 302 297 306 304 306 303 304 303 302 302 303 303 304 300 297 299 304 303 304 305 302 299 298 298 297 297 298 298 298 298 299 299 299 299 300 301 301 301 302 300 297 294 294 295 292 293 293 294 294 293
298 298 299 291 304 302 301 301 301 301 300 303 300 300 301 304 302 300 300 301 303 302 304 305 302 299 297 297 297 298 299 298 298 298 299 299 299 297 297 296 296 298 298 297 295 295 295 295 294 294 294 294 294 294
293 299 296 301 302 301 301 299 300 301 303 303 304 307 307 301 300 300 301 303 304 305 305 304 302 299 298 298 298 298 300 299 299 299 301 300 299 299 298 296 296 296 294 296 296 296 296 296 296 297 296 296 293 294
293 299 303 303 302 303 302 303 304 301 301 302 304 304 303 300 299 302 307 308 308 309 309 307 304 302 301 300 300 300 301 301 302 302 301 302 302 300 299 297 296 296 295 295 295 296 296 296 296 297 296 296 296 296
301 302 299 301 302 303 302 302 301 298 301 306 305 301 302 302 302 307 311 311 312 311 310 309 306 304 303 303 304 305 304 302 297 295 295 294 294 294 295 296 296 292 295 296 296 296 296 296 296 296 296 295 295 296
301 304 303 301 302 302 302 302 301 303 306 308 305 304 306 310 312 312 312 312 312 312 310 308 309 308 307 307 306 305 299 297 297 296 296 295 293 295 294 295 294 295 295 295 292 294 297 295 296 296 297 296 296 296
300 300 300 303 302 301 303 306 304 308 310 310 312 309 309 311 313 316 314 313 311 310 310 311 311 308 308 309 310 303 300 300 298 298 297 296 296 296 294 294 294 294 294 295 295 295 292 294 293 295 294 295 296 297
305 303 302 303 303 306 309 311 310 310 309 310 313 310 308 308 312 315 314 313 311 310 310 311 311 309 308 306 306 306 304 304 299 300 300 300 297 296 295 295 295 294 294 294 294 294 294 294 294 294 295 296 297 297
304 303 304 302 304 309 312 310 309 308 308 308 307 309 309 308 307 310 314 313 311 311 308 310 310 312 311 311 311 311 301 309 306 302 302 301 300 299 297 295 294 294 295 296 296 296 296 296 296 297 298 298 298 298
305 306 306 305 306 307 309 308 305 304 304 304 305 306 307 307 305 310 315 315 314 312 311 311 313 310 311 313 311 309 303 308 302 296 295 294 294 294 295 294 295 296 297 297 297 297 299 299 299 299 298 298 298 298
Wind_Speed
9 10 11 11 11 10 10 9 9 9 10 11 11 11 11 12 11 4 3 2 3 2 6 6 4 3 1 2 2 3 4 4 3 2 2 2 2 3 2 2 1 4 3 1 1 5 3 14 2 3 2 4 5 6
10 10 10 11 12 11 10 10 10 9 9 10 10 10 9 10 9 4 2 2 1 3 6 2 6 6 7 6 6 2 5 4 3 2 1 0 1 3 2 2 2 3 1 1 3 4 2 4 10 8 9 7 7 4
11 10 10 11 12 11 10 10 10 10 9 10 10 9 9 7 6 4 2 3 2 2 5 3 5 2 2 5 6 5 3 5 3 3 2 2 3 2 1 1 1 2 3 3 2 3 3 9 8 14 12 11 10 11
12 11 11 11 11 11 10 10 10 9 9 9 9 9 9 8 5 2 1 1 2 2 1 7 3 4 1 3 4 4 3 4 5 1 1 1 1 2 1 0 1 2 4 2 1 2 4 9 9 10 12 12 13 12
12 12 12 12 11 10 10 10 10 10 9 8 7 9 8 8 7 1 2 2 2 3 3 5 7 5 3 1 4 4 4 4 3 3 2 1 2 1 1 2 1 2 2 3 4 4 2 1 5 9 7 10 9 9
11 11 12 13 12 11 10 10 9 9 9 9 8 8 7 7 6 0 2 1 0 3 2 4 4 4 2 2 3 2 4 2 2 2 1 2 1 3 2 2 1 1 2 3 3 2 1 4 6 9 6 8 8 5
12 13 13 13 13 12 11 10 9 9 8 8 8 7 6 5 1 3 3 2 3 1 2 4 5 3 1 3 2 2 3 2 2 1 1 2 2 3 2 2 4 3 3 3 2 5 3 8 4 9 9 8 6 6
12 13 13 13 13 12 11 10 9 8 8 7 8 7 6 4 3 4 2 4 6 2 1 1 5 4 1 1 2 2 2 2 4 1 1 2 2 1 1 1 5 5 4 5 7 7 3 2 3 6 5 8 8 8
12 13 13 13 12 12 11 10 9 8 7 7 8 8 1 1 1 2 8 8 1 3 2 2 3 4 2 1 1 3 2 3 3 2 1 2 2 0 5 6 6 5 4 5 5 6 6 7 7 7 9 11 8 8
12 12 12 12 12 11 10 10 8 6 6 6 1 1 1 1 1 4 0 2 3 2 2 3 1 2 3 2 2 1 2 1 2 3 2 4 3 4 4 7 7 7 6 7 4 2 3 4 6 7 7 7 8 10
11 11 12 11 11 10 10 8 6 3 0 1 1 1 1 1 1 0 1 1 1 2 3 4 5 2 2 3 3 1 2 0 3 5 3 2 4 5 6 7 6 7 8 7 4 4 4 4 3 3 4 3 5 7
10 10 10 10 9 9 7 6 3 2 0 1 1 1 1 1 0 1 2 0 1 3 2 3 3 4 2 3 3 0 2 1 2 1 3 3 6 4 8 8 8 8 8 7 6 7 6 5 4 3 4 4 4 5
8 8 9 9 8 7 7 6 7 3 1 1 1 1 1 1 1 3 2 2 2 4 3 1 2 3 1 2 2 2 1 4 2 1 3 6 3 5 7 6 6 5 6 5 6 4 5 3 2 2 4 4 5 5
7 7 8 8 8 7 6 5 6 6 2 1 1 3 3 3 4 4 3 2 1 1 2 2 1 2 1 2 2 1 2 2 0 1 6 4 7 7 9 6 8 9 9 8 8 7 7 7 6 6 7 6 4 4
6 6 7 11 13 10 6 7 10 1 2 1 2 3 5 4 3 3 2 1 3 3 2 1 1 2 1 2 1 0 1 3 5 6 4 4 6 9 9 8 9 8 9 8 6 8 9 8 8 8 7 6 5 5
3 5 5 7 5 5 11 10 2 1 1 2 4 4 3 2 3 1 2 3 3 2 2 1 1 2 1 1 3 6 3 5 6 4 3 3 7 7 7 7 9 8 7 8 7 8 7 7 9 7 5 6 7 6
4 2 3 3 7 14 10 2 2 3 2 4 4 3 2 3 4 3 4 3 3 2 1 1 3 4 2 3 3 5 6 5 4 4 2 6 9 8 7 7 6 6 6 6 5 6 7 4 5 4 6 6 8 7
2 2 8 13 7 5 1 1 2 3 5 4 3 2 3 4 3 3 3 3 4 3 3 2 1 3 4 4 4 5 5 2 3 3 3 4 5 6 6 8 6 7 6 6 6 4 3 4 5 6 7 6 5 5
2 4 12 9 2 2 2 2 2 3 5 2 3 3 3 3 4 3 3 4 3 2 2 2 2 4 5 5 5 4 3 3 2 1 1 2 5 7 6 5 4 4 5 5 4 5 4 5 5 4 4 3 4 3
3 4 10 6 2 1 2 2 2 3 3 2 3 3 3 4 2 2 2 5 5 3 3 4 6 5 5 4 5 4 2 4 4 3 1 2 3 6 6 6 5 5 4 3 4 4 3 4 5 5 4 5 4 6
5 3 6 3 0 1 2 2 3 3 3 3 2 2 4 2 2 3 3 4 3 4 5 5 4 4 4 3 2 2 3 5 5 5 6 4 4 4 4 4 4 3 4 3 4 5 6 6 5 4 4 4 4 5
3 6 3 2 2 2 3 2 2 2 2 2 2 2 4 3 2 2 4 2 4 5 4 4 3 3 3 2 3 4 3 6 4 4 6 7 4 3 4 4 4 4 4 5 4 5 4 4 3 3 2 3 3 3
7 2 2 3 3 3 4 2 2 3 3 2 1 3 3 3 2 3 2 4 4 3 3 3 1 1 3 1 2 3 4 6 4 3 3 2 1 2 3 4 4 5 5 5 4 4 4 3 4 3 2 1 1 2
2 3 3 3 3 3 2 3 2 2 2 2 2 4 3 2 2 1 3 3 3 0 2 3 3 3 3 2 1 2 2 3 3 1 3 3 3 5 4 4 4 6 6 1 3 4 4 4 4 3 3 2 3 4
2 2 3 3 2 2 3 3 3 2 3 3 2 4 2 1 1 2 3 3 1 2 2 3 3 3 3 2 1 3 2 3 4 4 3 4 2 2 4 3 4 5 4 4 4 5 4 3 3 4 4 4 5 6
2 4 6 4 3 3 3 3 4 4 3 3 3 1 2 1 2 4 2 2 2 3 4 5 5 4 3 4 3 3 4 4 4 2 3 4 5 5 4 3 3 5 4 4 4 5 4 4 4 6 5 7 8 6
3 3 3 2 1 2 3 3 2 1 3 3 2 1 0 3 3 2 2 1 2 3 3 4 5 5 5 4 4 4 3 5 5 3 0 2 3 4 4 4 5 5 3 6 5 4 4 5 4 5 5 3 3 4
3 2 3 3 3 2 3 3 3 4 4 3 0 3 3 3 2 3 3 2 3 2 2 2 4 4 3 4 2 2 1 2 3 3 2 3 2 2 1 2 2 2 3 4 4 4 4 4 4 4 3 4 5 3
3 2 2 4 3 3 4 4 4 4 3 4 3 3 3 2 2 2 3 3 1 2 3 2 3 4 3 2 3 4 4 6 7 6 6 3 3 3 1 2 2 2 3 3 3 4 5 3 3 3 3 4 4 5
5 4 3 3 4 6 5 6 4 3 2 3 2 2 3 3 4 4 3 3 3 4 4 5 4 5 5 5 5 4 4 5 4 4 5 5 5 3 4 4 4 3 3 3 2 0 2 2 1 1 3 4 3 4
2 4 3 4 4 5 6 4 3 2 2 4 4 4 4 3 5 5 5 4 4 4 4 5 3 5 5 5 5 4 4 5 7 7 4 3 3 4 5 5 4 3 3 3 2 1 2 2 2 4 5 6 7 6
4 7 4 4 4 2 1 3 3 4 3 4 4 3 1 0 3 5 3 4 3 4 6 5 5 8 8 6 6 4 5 6 7 7 9 4 3 4 5 4 4 4 3 2 1 2 3 4 4 4 4 7 8 8
3 3 4 3 3 3 3 3 2 3 3 3 4 5 5 5 6 5 2 3 4 3 3 4 4 3 3 6 6 4 7 5 7 10 12 11 10 9 6 4 4 4 4 2 2 2 3 5 5 6 6 6 7 8
Wind_Direction
296 301 306 310 311 316 320 323 327 328 327 330 332 337 341 342 349 35 270 208 119 179 273 198 204 187 154 142 230 276 8 10 286 242 127 216 259 308 359 42 56 113 135 118 181 96 149 351 314 85 21 49 91 79
288 293 297 302 306 310 320 323 316 314 323 328 330 328 335 338 348 30 314 342 26 157 241 278 256 236 183 199 134 79 185 181 258 284 158 69 298 272 209 155 327 89 120 54 12 99 66 13 72 45 36 60 19 82
279 285 288 293 299 306 312 315 317 314 313 322 321 322 322 331 350 36 269 303 40 28 310 18 267 351 131 190 159 131 241 174 210 250 162 191 245 258 360 37 116 84 28 128 96 194 119 61 47 40 26 32 23 24
269 276 281 286 289 298 304 308 315 321 319 314 323 318 315 316 333 22 290 209 104 109 116 280 328 280 326 163 171 177 152 125 112 196 198 161 218 166 280 116 87 20 329 120 32 202 189 72 42 43 22 22 17 15
262 268 273 276 277 283 292 297 305 311 318 312 315 312 314 315 319 292 198 224 193 144 225 276 302 272 275 193 215 119 137 137 161 165 180 254 236 313 19 224 101 26 297 161 197 213 177 147 24 32 43 28 6 353
259 266 271 275 276 273 277 286 296 304 310 311 307 311 304 308 339 321 29 257 204 162 95 319 291 295 324 53 19 73 133 117 128 153 221 252 183 148 93 62 21 18 40 11 172 221 282 286 98 31 40 15 2 339
255 261 263 266 271 272 270 276 283 289 300 302 303 301 299 304 100 189 203 184 148 51 103 311 317 277 327 34 16 24 33 116 128 168 135 162 307 58 82 145 177 172 104 62 8 193 156 43 359 354 20 359 13 11
251 260 264 263 264 268 268 270 274 286 299 299 297 300 294 288 276 302 258 229 148 121 77 225 271 340 22 42 331 23 5 33 19 208 10 35 5 51 89 230 148 158 138 68 43 49 95 285 49 28 354 13 10 14
254 261 268 272 271 269 271 269 270 285 301 302 298 298 28 130 232 281 118 127 76 129 208 175 171 246 0 59 292 5 32 35 313 30 355 77 327 55 213 173 183 185 162 145 73 62 37 24 4 5 354 3 7 360
257 265 271 273 273 272 271 262 266 284 304 297 281 137 262 198 339 125 187 42 26 349 56 228 218 269 105 44 325 41 12 94 49 267 25 61 270 268 233 193 169 168 163 136 99 25 12 12 6 349 346 347 342 335
260 268 269 272 273 269 271 263 275 331 244 231 292 247 322 296 202 238 301 225 130 246 203 236 195 205 224 132 202 158 169 354 55 266 103 323 289 236 171 164 172 164 162 177 155 140 159 163 210 251 276 290 325 329
259 267 273 274 272 270 260 253 180 156 164 333 306 286 315 248 85 311 244 264 206 252 221 221 220 202 191 112 105 226 112 60 247 158 72 277 250 206 160 169 174 169 170 174 174 173 186 199 219 252 291 308 318 314
259 265 268 271 275 273 250 241 197 156 39 143 218 252 156 173 238 238 232 180 227 191 246 270 247 183 122 100 82 122 166 225 91 85 231 226 238 174 175 161 170 177 176 169 182 188 192 213 236 242 287 287 300 312
248 259 270 272 270 262 237 219 171 143 135 195 251 293 224 203 237 203 229 246 126 186 244 259 251 198 182 82 118 154 239 118 272 234 238 238 214 185 172 162 145 187 194 198 200 196 200 200 222 239 235 234 235 267
230 264 288 277 250 235 207 172 153 161 158 195 177 246 228 234 263 253 240 244 200 159 201 191 218 107 12 79 258 16 206 251 211 228 230 230 185 156 166 168 181 184 194 202 192 201 211 204 209 227 231 228 230 255
205 296 243 254 275 173 145 128 129 143 168 225 232 240 240 277 275 194 202 253 160 134 34 27 137 84 61 180 212 220 155 227 245 221 230 155 158 161 162 175 192 197 190 203 198 209 210 203 211 218 230 229 237 244
166 239 18 93 142 133 136 113 152 186 225 228 239 215 274 298 257 246 190 235 127 114 222 207 168 200 172 236 249 181 205 224 228 256 228 183 168 172 167 178 186 191 198 205 204 208 219 211 180 200 247 243 219 232
229 65 130 131 121 134 128 182 197 214 246 232 236 195 198 224 245 224 220 163 146 170 156 209 185 216 212 215 253 238 243 251 239 242 196 169 150 151 162 176 183 186 195 215 213 225 222 198 217 240 238 259 233 238
120 142 156 160 156 145 156 180 200 253 246 251 250 224 237 245 240 238 179 185 167 137 137 131 255 223 231 218 226 246 231 204 183 189 147 136 165 161 174 185 187 185 204 220 214 225 229 222 232 248 250 214 239 245
235 37 178 179 355 154 224 181 173 251 264 256 274 271 238 233 244 226 169 155 143 171 165 215 219 216 201 226 205 223 208 164 134 105 160 194 174 158 184 181 198 211 227 243 246 222 236 259 238 231 231 226 224 251
144 173 140 166 234 246 274 208 224 225 266 253 242 290 269 252 246 193 162 147 171 208 228 226 229 234 222 239 208 213 215 175 179 166 179 183 199 177 181 200 196 192 204 220 243 259 208 236 262 224 227 231 226 245
118 151 116 177 220 212 260 225 251 289 273 272 292 237 277 279 234 192 132 170 223 228 202 195 231 183 193 245 229 207 202 149 132 109 84 107 133 178 224 202 161 213 214 224 215 240 258 252 246 210 211 258 228 255
147 150 123 156 195 180 262 148 251 221 262 271 296 281 251 254 191 132 222 220 247 222 201 195 174 144 140 102 157 97 145 150 172 183 168 191 237 230 213 200 192 206 235 247 194 224 235 232 211 205 236 268 278 287
188 181 190 196 183 236 179 227 230 267 273 259 242 266 251 253 143 140 250 245 246 206 175 180 132 87 42 54 130 204 177 151 128 156 200 177 226 248 215 237 210 216 216 208 192 210 211 205 183 196 213 247 254 254
90 257 128 252 212 219 213 213 217 224 251 230 236 271 282 358 269 241 241 267 236 236 195 152 158 162 168 208 272 259 214 168 171 215 235 198 233 313 272 252 252 237 174 184 206 199 209 169 193 217 225 235 256 264
213 218 180 199 184 212 207 235 209 217 230 251 235 260 51 358 276 247 240 261 230 216 192 187 173 174 234 201 176 214 234 179 146 209 262 196 206 206 229 248 289 292 190 187 156 188 195 189 210 220 238 256 256 254
260 249 205 220 246 240 265 255 247 276 272 254 236 193 235 248 252 285 297 246 235 248 223 180 177 197 199 191 218 223 196 176 187 194 327 245 237 203 179 202 241 250 189 176 172 161 187 210 217 222 236 258 259 256
238 274 235 175 203 224 265 252 208 221 240 225 142 214 222 227 249 237 214 239 238 294 310 195 195 185 197 242 219 185 184 145 103 85 77 64 64 78 159 218 268 210 153 160 170 174 170 168 189 212 233 260 278 261
230 201 191 223 215 220 222 223 229 221 223 171 189 260 253 232 230 227 262 223 176 20 341 315 240 187 193 223 222 192 166 157 142 168 219 252 324 290 160 110 102 99 114 129 131 138 170 165 196 207 237 258 275 293
227 170 209 236 198 220 228 193 221 225 213 209 191 312 302 278 245 229 255 193 202 213 214 218 219 176 188 194 229 185 201 201 185 161 181 214 228 199 158 156 157 143 127 118 123 70 18 38 54 354 307 296 290 292
150 170 224 226 239 223 218 195 210 215 249 220 209 217 252 286 298 263 233 226 191 182 189 237 227 210 192 195 206 211 227 211 201 215 171 140 152 159 162 166 160 143 147 145 112 33 316 305 291 299 304 307 307 307
187 197 208 229 250 246 126 201 211 209 209 197 228 174 154 31 262 278 238 146 154 202 224 209 219 243 216 224 208 190 112 146 184 195 171 169 154 155 158 144 141 138 148 158 212 264 281 280 297 302 304 308 304 298
222 186 201 257 256 248 203 180 227 263 219 227 226 176 179 183 237 263 299 211 217 237 238 217 230 251 240 208 197 156 141 154 159 158 159 148 144 141 133 131 134 146 167 191 245 249 281 297 285 296 302 304 308 313